Time,TemperatureF,DewpointF,PressureIn,WindDirection,WindDirectionDegrees,WindSpeedMPH,WindSpeedGustMPH,Humidity,HourlyPrecipIn,Conditions,Clouds,dailyrainin,SoftwareType,DateUTC
2013-04-25 00:14:00,39.5,34.0,30.23,South,190,4.0,6.0,81,0.00,,,0.00,weatherlink.com 1.10,2013-04-25 05:14:00,
2013-04-25 00:29:00,39.3,34.0,30.23,SSW,192,3.0,6.0,80,0.00,,,0.00,weatherlink.com 1.10,2013-04-25 05:29:00,
2013-04-25 00:44:00,39.1,34.0,30.23,South,191,3.0,6.0,81,0.00,,,0.00,weatherlink.com 1.10,2013-04-25 05:44:00,
2013-04-25 00:59:00,39.1,34.0,30.23,SSW,197,4.0,5.0,81,0.00,,,0.00,weatherlink.com 1.10,2013-04-25 05:59:00,
2013-04-25 01:14:00,37.7,33.0,30.22,South,181,4.0,5.0,82,0.00,,,0.00,weatherlink.com 1.10,2013-04-25 06:14:00,
2013-04-25 01:29:00,36.6,33.0,30.21,South,175,4.0,5.0,85,0.00,,,0.00,weatherlink.com 1.10,2013-04-25 06:29:00,
2013-04-25 01:44:00,36.6,33.0,30.21,SSW,194,3.0,5.0,86,0.00,,,0.00,weatherlink.com 1.10,2013-04-25 06:44:00,
2013-04-25 01:59:00,37.8,33.0,30.20,South,184,3.0,5.0,84,0.00,,,0.00,weatherlink.com 1.10,2013-04-25 06:59:00,
2013-04-25 02:14:00,38.2,34.0,30.21,SSW,212,4.0,8.0,83,0.00,,,0.00,weatherlink.com 1.10,2013-04-25 07:14:00,
2013-04-25 02:29:00,38.6,33.0,30.20,SSW,198,3.0,6.0,81,0.00,,,0.00,weatherlink.com 1.10,2013-04-25 07:29:00,
2013-04-25 02:44:00,38.3,33.0,30.19,South,184,3.0,7.0,82,0.00,,,0.00,weatherlink.com 1.10,2013-04-25 07:44:00,
2013-04-25 02:59:00,37.4,33.0,30.18,South,175,5.0,7.0,84,0.00,,,0.00,weatherlink.com 1.10,2013-04-25 07:59:00,
2013-04-25 03:14:00,37.5,33.0,30.18,South,179,5.0,7.0,84,0.00,,,0.00,weatherlink.com 1.10,2013-04-25 08:14:00,
2013-04-25 03:29:00,37.2,33.0,30.18,South,190,3.0,6.0,85,0.00,,,0.00,weatherlink.com 1.10,2013-04-25 08:29:00,
2013-04-25 03:44:00,37.7,33.0,30.18,SSW,196,5.0,7.0,84,0.00,,,0.00,weatherlink.com 1.10,2013-04-25 08:44:00,
2013-04-25 03:59:00,37.9,34.0,30.18,SSW,202,4.0,6.0,84,0.00,,,0.00,weatherlink.com 1.10,2013-04-25 08:59:00,
2013-04-25 04:14:00,37.8,33.0,30.19,SSW,195,4.0,9.0,83,0.00,,,0.00,weatherlink.com 1.10,2013-04-25 09:14:00,
2013-04-25 04:29:00,38.0,33.0,30.19,SSW,200,4.0,7.0,83,0.00,,,0.00,weatherlink.com 1.10,2013-04-25 09:29:00,
2013-04-25 04:44:00,38.3,33.0,30.18,South,184,5.0,8.0,82,0.00,,,0.00,weatherlink.com 1.10,2013-04-25 09:44:00,
2013-04-25 04:59:00,38.7,34.0,30.18,South,179,3.0,7.0,82,0.00,,,0.00,weatherlink.com 1.10,2013-04-25 09:59:00,
2013-04-25 05:14:00,39.1,34.0,30.17,South,174,6.0,9.0,82,0.00,,,0.00,weatherlink.com 1.10,2013-04-25 10:14:00,
2013-04-25 05:29:00,39.5,34.0,30.18,SSW,192,3.0,8.0,82,0.00,,,0.00,weatherlink.com 1.10,2013-04-25 10:29:00,
2013-04-25 05:44:00,39.7,35.0,30.18,South,177,5.0,7.0,82,0.00,,,0.00,weatherlink.com 1.10,2013-04-25 10:44:00,
2013-04-25 05:59:00,39.7,35.0,30.18,SW,234,4.0,7.0,82,0.00,,,0.00,weatherlink.com 1.10,2013-04-25 10:59:00,
2013-04-25 06:14:00,40.0,35.0,30.19,SSW,212,6.0,7.0,81,0.00,,,0.00,weatherlink.com 1.10,2013-04-25 11:14:00,
2013-04-25 06:29:00,39.9,35.0,30.19,SSW,201,3.0,8.0,81,0.00,,,0.00,weatherlink.com 1.10,2013-04-25 11:29:00,
2013-04-25 06:44:00,39.9,35.0,30.19,SW,228,4.0,7.0,82,0.00,,,0.00,weatherlink.com 1.10,2013-04-25 11:44:00,
2013-04-25 06:59:00,40.3,35.0,30.19,SSW,209,3.0,7.0,82,0.00,,,0.00,weatherlink.com 1.10,2013-04-25 11:59:00,
2013-04-25 07:14:00,40.8,35.0,30.20,SSW,199,3.0,9.0,81,0.00,,,0.00,weatherlink.com 1.10,2013-04-25 12:14:00,
2013-04-25 07:29:00,41.5,36.0,30.20,WSW,253,3.0,8.0,80,0.00,,,0.00,weatherlink.com 1.10,2013-04-25 12:29:00,
2013-04-25 07:44:00,41.8,36.0,30.20,WSW,241,2.0,10.0,79,0.00,,,0.00,weatherlink.com 1.10,2013-04-25 12:44:00,
2013-04-25 07:59:00,43.2,36.0,30.21,SW,229,5.0,14.0,77,0.00,,,0.00,weatherlink.com 1.10,2013-04-25 12:59:00,
2013-04-25 08:14:00,44.3,37.0,30.21,NW,310,10.0,12.0,76,0.00,,,0.00,weatherlink.com 1.10,2013-04-25 13:14:00,
2013-04-25 08:29:00,44.6,37.0,30.21,WSW,243,5.0,21.0,76,0.00,,,0.00,weatherlink.com 1.10,2013-04-25 13:29:00,
2013-04-25 08:45:00,45.3,37.0,30.21,NW,310,14.0,21.0,73,0.00,,,0.00,weatherlink.com 1.10,2013-04-25 13:45:00,
2013-04-25 09:00:00,44.9,35.0,30.22,WNW,303,16.0,19.0,69,0.00,,,0.00,weatherlink.com 1.10,2013-04-25 14:00:00,
2013-04-25 09:15:00,46.8,36.0,30.22,NW,310,10.0,20.0,67,0.00,,,0.00,weatherlink.com 1.10,2013-04-25 14:15:00,
2013-04-25 09:30:00,46.4,33.0,30.23,NW,320,15.0,22.0,60,0.00,,,0.00,weatherlink.com 1.10,2013-04-25 14:30:00,
2013-04-25 09:45:00,47.7,31.0,30.24,West,269,6.0,17.0,53,0.00,,,0.00,weatherlink.com 1.10,2013-04-25 14:45:00,
2013-04-25 10:00:00,46.9,31.0,30.24,WNW,299,15.0,19.0,55,0.00,,,0.00,weatherlink.com 1.10,2013-04-25 15:00:00,
2013-04-25 10:15:00,47.0,33.0,30.25,West,277,13.0,18.0,58,0.00,,,0.00,weatherlink.com 1.10,2013-04-25 15:15:00,
2013-04-25 10:30:00,45.9,33.0,30.26,WNW,299,15.0,15.0,61,0.00,,,0.00,weatherlink.com 1.10,2013-04-25 15:30:00,
2013-04-25 10:45:00,45.7,34.0,30.27,West,270,8.0,22.0,64,0.00,,,0.00,weatherlink.com 1.10,2013-04-25 15:45:00,
2013-04-25 11:00:00,47.2,36.0,30.27,WSW,242,9.0,15.0,65,0.00,,,0.00,weatherlink.com 1.10,2013-04-25 16:00:00,
2013-04-25 11:15:00,47.1,34.0,30.29,WNW,291,9.0,21.0,61,0.00,,,0.00,weatherlink.com 1.10,2013-04-25 16:15:00,
2013-04-25 11:30:00,46.5,33.0,30.29,NW,305,14.0,17.0,60,0.00,,,0.00,weatherlink.com 1.10,2013-04-25 16:30:00,
2013-04-25 11:45:00,47.1,34.0,30.30,NW,315,7.0,19.0,61,0.00,,,0.00,weatherlink.com 1.10,2013-04-25 16:45:00,
2013-04-25 12:00:00,46.1,34.0,30.30,NW,315,9.0,20.0,64,0.00,,,0.00,weatherlink.com 1.10,2013-04-25 17:00:00,
2013-04-25 12:15:00,47.0,35.0,30.31,WNW,303,6.0,14.0,64,0.00,,,0.00,weatherlink.com 1.10,2013-04-25 17:15:00,
2013-04-25 12:30:00,47.3,34.0,30.31,NW,320,10.0,16.0,61,0.00,,,0.00,weatherlink.com 1.10,2013-04-25 17:30:00,
2013-04-25 12:45:00,47.1,34.0,30.32,NW,310,10.0,12.0,61,0.00,,,0.00,weatherlink.com 1.10,2013-04-25 17:45:00,
2013-04-25 13:00:00,47.0,34.0,30.32,NW,320,9.0,16.0,62,0.00,,,0.00,weatherlink.com 1.10,2013-04-25 18:00:00,
2013-04-25 13:15:00,47.8,34.0,30.32,NW,310,10.0,17.0,59,0.00,,,0.00,weatherlink.com 1.10,2013-04-25 18:15:00,
2013-04-25 13:30:00,48.2,33.0,30.33,North,360,7.0,14.0,56,0.00,,,0.00,weatherlink.com 1.10,2013-04-25 18:30:00,
2013-04-25 13:45:00,47.2,35.0,30.34,NW,320,6.0,14.0,62,0.00,,,0.00,weatherlink.com 1.10,2013-04-25 18:45:00,
2013-04-25 14:00:00,47.5,34.0,30.34,NW,326,7.0,16.0,59,0.00,,,0.00,weatherlink.com 1.10,2013-04-25 19:00:00,
2013-04-25 14:15:00,49.7,34.0,30.34,NW,320,6.0,17.0,55,0.00,,,0.00,weatherlink.com 1.10,2013-04-25 19:15:00,
2013-04-25 14:30:00,48.8,34.0,30.34,WNW,299,12.0,15.0,57,0.00,,,0.00,weatherlink.com 1.10,2013-04-25 19:30:00,
2013-04-25 14:45:00,50.4,33.0,30.34,NNW,328,9.0,19.0,51,0.00,,,0.00,weatherlink.com 1.10,2013-04-25 19:45:00,
2013-04-25 15:00:00,50.2,33.0,30.34,WNW,289,10.0,17.0,53,0.00,,,0.00,weatherlink.com 1.10,2013-04-25 20:00:00,
2013-04-25 15:15:00,50.6,33.0,30.34,WNW,290,4.0,18.0,52,0.00,,,0.00,weatherlink.com 1.10,2013-04-25 20:15:00,
2013-04-25 15:30:00,51.3,35.0,30.34,West,279,6.0,16.0,54,0.00,,,0.00,weatherlink.com 1.10,2013-04-25 20:30:00,
2013-04-25 15:45:00,50.0,33.0,30.35,West,268,5.0,13.0,52,0.00,,,0.00,weatherlink.com 1.10,2013-04-25 20:45:00,
2013-04-25 16:00:00,49.8,31.0,30.36,West,273,3.0,16.0,49,0.00,,,0.00,weatherlink.com 1.10,2013-04-25 21:00:00,
2013-04-25 16:15:00,52.2,32.0,30.34,WNW,289,11.0,15.0,47,0.00,,,0.00,weatherlink.com 1.10,2013-04-25 21:15:00,
2013-04-25 16:30:00,50.6,30.0,30.35,WNW,282,4.0,12.0,46,0.00,,,0.00,weatherlink.com 1.10,2013-04-25 21:30:00,
2013-04-25 16:45:00,52.8,31.0,30.34,NNW,338,5.0,14.0,44,0.00,,,0.00,weatherlink.com 1.10,2013-04-25 21:45:00,
2013-04-25 17:00:00,51.2,30.0,30.36,NNW,330,2.0,11.0,44,0.00,,,0.00,weatherlink.com 1.10,2013-04-25 22:00:00,
2013-04-25 17:15:00,50.2,30.0,30.36,WSW,245,2.0,13.0,47,0.00,,,0.00,weatherlink.com 1.10,2013-04-25 22:15:00,
2013-04-25 17:30:00,51.3,31.0,30.36,NW,315,4.0,6.0,47,0.00,,,0.00,weatherlink.com 1.10,2013-04-25 22:30:00,
2013-04-25 17:45:00,50.9,31.0,30.36,WNW,303,9.0,12.0,46,0.00,,,0.00,weatherlink.com 1.10,2013-04-25 22:45:00,
2013-04-25 18:00:00,51.1,31.0,30.36,WNW,293,4.0,6.0,47,0.00,,,0.00,weatherlink.com 1.10,2013-04-25 23:00:00,
2013-04-25 18:16:00,51.0,30.0,30.37,WNW,303,7.0,11.0,44,0.00,,,0.00,weatherlink.com 1.10,2013-04-25 23:16:00,
2013-04-25 18:31:00,50.5,30.0,30.36,West,278,5.0,7.0,46,0.00,,,0.00,weatherlink.com 1.10,2013-04-25 23:31:00,
2013-04-25 18:46:00,49.9,30.0,30.36,NW,315,6.0,9.0,47,0.00,,,0.00,weatherlink.com 1.10,2013-04-25 23:46:00,
2013-04-25 19:01:00,49.6,30.0,30.37,NW,310,2.0,4.0,48,0.00,,,0.00,weatherlink.com 1.10,2013-04-26 00:01:00,
2013-04-25 19:16:00,48.8,31.0,30.37,WSW,247,2.0,5.0,50,0.00,,,0.00,weatherlink.com 1.10,2013-04-26 00:16:00,
2013-04-25 19:31:00,48.0,31.0,30.38,WSW,253,1.0,5.0,52,0.00,,,0.00,weatherlink.com 1.10,2013-04-26 00:31:00,
2013-04-25 19:46:00,46.9,30.0,30.38,SW,226,1.0,6.0,53,0.00,,,0.00,weatherlink.com 1.10,2013-04-26 00:46:00,
2013-04-25 20:01:00,45.7,31.0,30.38,WSW,257,1.0,3.0,57,0.00,,,0.00,weatherlink.com 1.10,2013-04-26 01:01:00,
2013-04-25 20:16:00,44.7,31.0,30.39,WSW,257,0.0,1.0,59,0.00,,,0.00,weatherlink.com 1.10,2013-04-26 01:16:00,
2013-04-25 20:31:00,41.5,32.0,30.39,WSW,256,0.0,3.0,70,0.00,,,0.00,weatherlink.com 1.10,2013-04-26 01:31:00,
2013-04-25 20:46:00,40.9,33.0,30.40,WSW,256,0.0,1.0,72,0.00,,,0.00,weatherlink.com 1.10,2013-04-26 01:46:00,
2013-04-25 21:01:00,40.0,32.0,30.40,WSW,256,0.0,2.0,74,0.00,,,0.00,weatherlink.com 1.10,2013-04-26 02:01:00,
2013-04-25 21:16:00,38.9,33.0,30.40,WSW,256,1.0,2.0,78,0.00,,,0.00,weatherlink.com 1.10,2013-04-26 02:16:00,
2013-04-25 21:31:00,37.8,32.0,30.41,WSW,249,1.0,3.0,81,0.00,,,0.00,weatherlink.com 1.10,2013-04-26 02:31:00,
2013-04-25 21:46:00,37.6,32.0,30.41,WSW,248,2.0,2.0,80,0.00,,,0.00,weatherlink.com 1.10,2013-04-26 02:46:00,
2013-04-25 22:01:00,37.1,32.0,30.41,WSW,248,2.0,2.0,81,0.00,,,0.00,weatherlink.com 1.10,2013-04-26 03:01:00,
2013-04-25 22:16:00,36.7,32.0,30.41,WSW,247,1.0,2.0,83,0.00,,,0.00,weatherlink.com 1.10,2013-04-26 03:16:00,
2013-04-25 22:31:00,36.2,32.0,30.41,WSW,247,1.0,2.0,84,0.00,,,0.00,weatherlink.com 1.10,2013-04-26 03:31:00,
2013-04-25 22:46:00,35.7,32.0,30.41,WSW,247,0.0,0.0,85,0.00,,,0.00,weatherlink.com 1.10,2013-04-26 03:46:00,
2013-04-25 23:01:00,35.5,31.0,30.42,WSW,247,0.0,0.0,85,0.00,,,0.00,weatherlink.com 1.10,2013-04-26 04:01:00,
2013-04-25 23:16:00,34.5,31.0,30.42,WSW,247,0.0,1.0,88,0.00,,,0.00,weatherlink.com 1.10,2013-04-26 04:16:00,
2013-04-25 23:31:00,34.8,31.0,30.42,WSW,247,0.0,0.0,87,0.00,,,0.00,weatherlink.com 1.10,2013-04-26 04:31:00,
2013-04-25 23:46:00,34.5,31.0,30.43,WSW,247,0.0,0.0,86,0.00,,,0.00,weatherlink.com 1.10,2013-04-26 04:46:00,